Pilot information for Mpaka Airport

[ general | frequencies | runways | weather | notam | navaids | links ]

Caution: This page displays community-maintained data: information may be missing, incorrect, or out of date. Please confirm with an official source before making travel plans.

General information for Mpaka Airport

Airport codes: FZFQ
Type: local airport(light traffic)
Scheduled airline service: no
Serves: Mpaka, Equateur, Congo (Kinshasa)
Latitude: 4.117000 | 4 7.020006 N | N04 07 01
Longitude: 19.216999 | 19 13.019943 E | E019 13 01
Field elevation: 1,969 ft/600 m MSL

Radio communication frequencies for Mpaka Airport

No communications frequencies known for Mpaka Airport.

Members can add and update frequencies.

Runways at Mpaka Airport

No runway information available for Mpaka Airport.

Members can add and update runway information.

Aviation weather for Mpaka Airport

Current conditions (METAR) for Mpaka Airport

Closest report is Bangui M'Poko International Airport, 45.1 nm (83.5 km) WNW. Retrieved 2015/09/01 05:00:

FEFF 010500Z VRB02KT 9999 FEW010 FEW033CB 23/23 Q1013 NOSIG

Forecast (TAF) for Mpaka Airport

Closest forecast is Bangui M'Poko International Airport, 45.1 nm (83.5 km) WNW. Retrieved 2015/08/31 00:00:

TAF FCBB 312300Z 0100/0206 28004KT 7000 SCT018= TAF FEFF 312300Z 0100/0206 VRB03KT CAVOK PROB30 
      TEMPO 0103/0106 4000 BR BKN004 
      BECMG 0110/012 BKN026 FEW040CB 
      TEMPO 0114/0118 TS 
      BECMG 0119/0121 CAVOK

Notices to Airmen (NOTAM) for Mpaka Airport

Please confirm all NOTAMs at the original source! These are for information only, and may be wrong, out of date, or incomplete.

We have no current NOTAMs for Mpaka Airport. Please check with an official source to confirm.